User: anonymous   Login
Location: Borojevi?i
(45.0486°N, 16.2297°E)
Time: 20:32:02
(UTC+00:00)
Language:

FALCON 9 DEB - Orbit

View from above orbital plane
View from above orbital plane
View from above satellite
View from above satellite

Ground track
Ground track

The orbit data is extracted from the following two-line orbital elements,

1 44295U 19029BN  20304.01230799  .00003381  00000-0  81331-4 0  9990
2 44295  53.0012 199.4597 0010478 130.8284 229.3631 15.44280506 82288
Epoch (UTC): 30 October 2020 00:17:43
Eccentricity: 0.0010478
inclination: 53.0012°
perigee height: 426 km
apogee height: 440 km
right ascension of ascending node: 199.4597°
argument of perigee: 130.8284°
revolutions per day: 15.44280506
mean anomaly at epoch: 229.3631°
orbit number at epoch: 8228

The dashed part of the orbit path shows where the satellite is in the earth's shadow,  

DLR